Location: *
(55.5817°S, 142.4781°W)
Time: 09:35:35
(UTC+00:00)

Meteor 1-31 Rocket - Pass Details

Date: 29 April 2025
Orbit: 473 x 489 km, 97.7° (Epoch: 18 May)

Event Time Altitude Azimuth Distance (km) Brightness Sun altitude
Rises 15:29:46 0° 31° (NNE) 2,586 6.9 -11.7°
Reaches altitude 10° 15:31:53 10° 37° (NE) 1,711 6.0 -11.4°
Maximum altitude 15:35:26 48° 111° (ESE) 666 3.7 -10.9°
Drops below altitude 10° 15:39:02 10° 186° (S) 1,730 5.2 -10.4°
Sets 15:41:11 0° 191° (S) 2,619 6.1 -10.1°
